Wind_Speed
5 5 4 8 6 9 10 12 11 14 13 14 18 18 19 18 24 23 22 24 24 24 23 23 26 27 29 32 28 23 24 12 14 14 17 20 18 16 14 16 13 9 9
8 8 5 8 8 10 13 14 12 13 15 15 16 17 19 21 22 21 22 22 25 23 23 24 28 26 28 27 26 22 26 14 21 18 21 21 17 13 10 15 11 15 14
10 10 6 10 11 11 11 14 15 15 18 14 14 14 15 20 18 18 19 19 20 22 21 24 25 24 29 30 29 24 16 13 20 21 18 17 15 11 14 15 16 15 9
12 13 8 10 13 11 10 11 14 15 18 19 16 12 14 16 14 18 19 20 20 21 22 19 21 23 29 31 29 21 11 18 21 20 18 20 19 19 16 15 15 17 12
14 16 11 10 11 12 11 12 15 17 18 15 15 13 14 18 18 21 21 21 21 23 22 20 23 25 25 25 26 18 10 20 22 21 20 18 20 19 19 18 17 16 20
14 17 14 13 11 12 13 12 14 15 15 17 17 14 16 18 18 23 26 23 22 24 24 23 27 27 19 19 17 15 16 20 20 19 19 21 20 22 18 21 20 19 13
15 18 17 15 13 13 13 11 11 12 13 20 15 19 19 20 21 21 22 23 23 23 23 23 22 23 18 23 19 19 12 20 13 11 20 19 20 20 18 18 19 16 16
17 19 19 18 16 15 16 14 12 10 12 17 16 18 19 19 19 19 19 20 21 22 22 20 20 19 18 19 18 14 10 10 8 6 7 7 7 8 6 12 12 12 14
19 20 21 20 21 18 16 19 15 11 12 12 16 13 15 17 17 19 18 17 18 16 18 19 17 18 17 17 15 14 13 12 12 11 8 7 7 8 9 9 7 9 11
21 20 21 21 22 21 19 20 18 15 13 11 13 13 12 15 15 13 16 14 15 12 12 14 15 14 16 16 14 15 14 10 7 7 7 8 8 9 10 11 12 12 10
22 21 22 23 23 22 20 21 18 16 15 13 15 13 11 11 15 17 13 8 16 14 11 14 12 12 17 13 14 14 9 7 7 4 4 5 8 10 10 7 3 4 5
23 22 23 23 23 23 24 22 20 18 15 16 15 15 13 11 13 18 16 9 16 15 17 17 16 17 20 15 13 11 8 8 4 1 5 7 7 9 10 9 7 4 7
22 23 24 27 24 25 25 23 20 19 14 16 13 14 16 17 14 17 19 12 15 8 17 14 13 16 16 15 13 10 7 4 1 0 3 10 13 10 8 8 9 15 16
22 24 26 27 23 25 23 22 20 21 18 18 17 17 17 20 18 21 22 17 14 12 18 19 15 16 15 13 12 10 7 6 3 1 4 9 10 12 13 14 14 16 16
25 24 26 25 26 25 24 23 23 23 25 19 20 20 20 21 23 24 29 25 21 15 13 12 12 11 11 11 9 5 2 7 7 10 10 11 12 12 14 13 13 14 13
25 25 26 25 27 22 23 21 24 20 25 25 22 22 22 21 24 22 27 29 26 21 15 12 12 13 14 14 15 15 12 15 16 15 12 11 11 11 12 11 10 12 13
26 26 26 25 26 23 23 21 21 24 28 26 25 14 14 26 26 27 23 25 23 21 22 18 17 20 19 19 18 23 22 17 14 15 13 8 8 8 9 13 16 18 17
30 29 28 29 25 28 25 24 20 22 17 23 26 20 11 15 24 31 30 27 26 24 21 16 17 17 11 26 26 25 22 20 19 13 12 10 10 12 14 14 13 16 17
34 31 31 28 28 27 27 25 25 22 25 21 19 17 16 15 21 34 33 30 26 22 23 17 15 19 25 27 26 23 23 19 17 16 14 12 10 8 11 12 14 15 14
34 34 33 28 29 26 29 27 27 27 24 28 26 28 26 25 26 27 29 22 19 19 21 14 25 26 25 24 24 24 25 20 17 13 11 9 9 10 9 11 12 14 15
30 32 34 29 26 31 26 29 27 27 26 27 30 32 41 40 32 30 31 27 24 22 13 27 27 27 27 23 25 26 23 20 15 14 9 8 8 9 8 9 12 13 14
23 29 36 34 30 32 24 29 26 29 28 28 30 37 40 40 31 27 25 24 18 22 28 33 30 27 25 28 27 25 22 19 17 12 9 8 7 8 7 8 9 12 14
22 19 27 32 29 26 34 26 29 23 24 22 28 40 42 29 27 27 24 31 33 35 31 31 31 32 27 26 22 21 19 15 14 12 9 7 7 8 6 7 10 13 15
19 20 20 23 27 27 23 25 23 23 16 23 28 36 38 21 31 39 37 34 35 34 32 32 35 35 33 31 28 23 18 16 12 12 10 7 5 6 7 7 10 12 13
12 12 18 17 21 25 23 22 16 16 24 24 24 27 28 38 38 33 34 34 33 35 37 34 34 34 31 28 23 22 19 16 13 15 12 7 5 5 4 8 9 9 11
16 19 14 16 16 18 16 13 14 12 22 25 24 28 28 29 31 33 35 39 40 39 40 37 33 30 27 24 21 20 18 14 12 15 13 9 5 3 6 6 7 9 10
Wind_Direction
164 117 133 107 97 88 97 100 73 99 102 97 105 112 127 129 138 130 134 137 129 129 129 130 133 148 143 144 145 146 151 139 128 149 151 167 165 181 183 177 205 215 222
167 137 146 117 101 97 98 102 79 92 101 97 107 109 129 134 144 143 141 150 141 142 146 143 139 150 151 157 159 168 165 155 148 143 161 168 174 177 191 181 192 211 232
169 135 156 125 113 106 116 113 95 92 101 105 115 118 128 142 145 143 147 154 149 149 146 144 145 150 154 158 161 169 189 181 159 139 143 167 165 180 189 194 210 220 255
162 147 163 135 134 128 125 128 110 103 102 100 99 109 125 145 145 142 147 147 143 155 150 138 145 159 163 169 174 189 175 168 159 152 155 163 175 190 187 199 215 227 233
166 146 165 148 151 145 131 119 123 115 112 96 103 94 108 124 137 133 139 152 148 147 141 147 153 161 168 178 192 201 194 170 163 163 167 171 180 186 201 208 224 237 241
170 150 166 170 162 144 126 126 122 126 130 116 108 107 102 111 122 130 135 138 139 142 149 154 162 171 187 183 198 200 179 166 177 174 170 174 191 201 208 217 229 233 240
173 160 171 181 162 149 147 143 132 134 119 119 109 115 110 105 114 121 128 133 138 147 152 152 155 160 157 163 167 173 175 177 181 137 178 193 197 206 214 222 228 248 261
186 168 175 180 167 171 161 150 138 127 118 120 119 123 122 119 121 122 123 125 125 135 138 145 153 148 154 155 157 165 160 174 158 155 164 173 185 205 225 246 254 267 277
190 172 177 184 170 178 171 154 156 150 144 142 139 141 139 138 129 131 131 128 131 135 130 142 145 154 151 148 159 167 174 189 204 213 227 238 244 255 256 256 264 298 303
190 181 178 185 174 178 177 161 165 170 168 170 154 155 165 166 164 157 149 150 144 143 149 152 162 169 163 165 175 174 176 194 198 221 248 260 270 281 294 290 286 281 304
192 185 176 183 179 180 176 169 173 180 183 199 168 167 169 187 181 179 179 144 163 166 171 172 166 170 170 168 166 175 174 165 177 219 266 299 294 299 307 301 307 353 330
195 185 176 177 175 180 177 173 180 192 191 200 175 171 179 189 193 188 192 165 170 181 175 175 177 169 171 174 171 181 182 183 188 296 336 339 333 111 77 64 74 56 339
198 184 173 170 180 179 174 175 181 195 202 191 188 187 193 185 194 190 187 178 176 162 167 175 174 175 179 190 202 210 206 197 140 21 349 51 69 67 54 60 4 340 338
197 181 169 165 177 170 176 183 188 191 206 191 203 200 203 185 196 190 189 183 172 141 140 155 168 181 191 200 215 231 241 221 174 3 41 67 42 25 27 26 27 10 356
192 178 169 170 176 175 182 190 197 199 200 202 205 199 203 184 192 198 192 190 185 163 157 165 171 186 203 220 231 229 128 141 133 102 82 59 47 42 35 24 10 5 337
188 181 178 176 178 184 188 196 201 212 200 219 210 204 205 199 194 201 198 198 195 186 181 194 205 211 213 212 208 192 182 138 110 105 79 76 62 35 12 13 352 334 11
193 188 186 184 181 192 190 202 193 212 200 212 228 221 215 198 198 199 195 195 194 191 204 206 215 215 217 221 125 115 106 106 107 101 91 54 34 47 25 19 31 19 14
194 192 190 192 190 191 195 200 201 196 194 207 217 224 208 207 198 195 187 182 182 196 202 213 225 233 114 117 124 123 120 117 105 79 68 52 21 24 42 31 25 26 17
191 194 194 194 203 194 199 199 208 204 198 197 202 199 197 185 190 187 185 183 182 193 209 218 236 143 133 124 131 131 127 117 110 109 94 90 69 38 38 33 30 22 11
193 196 194 201 198 211 197 203 202 212 200 194 188 188 179 174 175 182 187 184 192 203 213 193 131 133 134 136 132 124 114 108 103 94 91 80 71 69 41 35 20 10 10
193 195 195 201 216 204 215 203 207 207 213 199 197 189 203 192 188 192 198 206 212 216 164 125 126 131 131 131 127 120 120 126 125 112 109 107 90 65 50 29 18 6 352
202 190 193 205 210 226 215 223 209 210 211 213 194 191 206 193 193 190 193 205 218 157 139 131 125 133 131 130 132 136 135 129 123 121 122 110 103 65 47 19 5 3 353
208 208 191 203 211 211 221 246 226 224 214 209 173 181 184 186 186 183 165 140 134 132 130 130 132 131 137 143 144 140 133 130 140 133 118 102 105 49 27 13 15 1 345
206 213 206 196 205 213 224 221 251 216 197 150 167 173 179 179 144 136 134 132 132 133 131 135 145 150 147 148 148 147 148 144 146 147 134 113 86 38 41 34 9 352 352
242 253 202 204 192 202 213 224 226 183 148 151 158 159 152 142 137 136 134 133 137 142 149 152 154 152 154 152 152 152 161 165 163 151 135 113 81 56 21 17 9 6 4
234 255 255 192 170 180 197 194 181 170 142 147 150 139 136 135 133 135 139 142 144 150 151 146 144 147 149 152 154 155 152 150 154 153 133 102 83 31 24 29 13 17 9
Height
745 746 747 748 748 748 747 746 745 744 746 746 747 748 749 752 755 757 761 766 770 774 778 779 783 789 794 800 806 813 819 821 825 832 834 839 844 848 850 853 855 855 859
744 746 748 749 750 750 750 749 748 748 749 750 751 752 753 756 759 763 765 769 772 778 782 785 787 792 797 803 809 816 820 823 824 829 835 840 842 844 849 852 854 856 859
743 747 749 750 751 752 752 753 751 751 752 754 756 757 758 759 762 766 768 771 775 778 782 785 788 794 799 805 812 817 821 823 827 829 834 836 840 845 850 853 855 855 855
742 747 750 751 752 753 754 755 756 756 756 758 760 761 761 763 765 768 770 774 778 783 786 787 790 796 801 807 813 817 819 822 827 830 833 836 841 847 850 850 851 851 852
741 746 750 752 753 754 755 757 759 761 760 763 764 765 766 767 768 770 773 777 781 785 788 791 795 800 805 809 812 816 820 824 827 829 833 837 842 844 846 847 847 847 848
740 745 750 753 753 755 757 759 760 762 764 764 767 768 769 770 772 774 776 780 784 788 792 796 800 805 808 811 814 818 820 822 824 828 831 834 837 841 841 841 842 842 842
739 743 748 752 754 756 758 761 762 764 766 768 769 771 773 775 777 779 781 783 787 790 794 797 803 807 809 812 816 818 822 825 826 825 827 831 833 834 836 836 837 839 838
737 741 746 750 753 756 759 761 764 766 768 770 772 775 777 779 781 783 786 788 791 794 797 800 803 806 810 812 815 819 820 821 822 826 828 829 831 834 834 835 836 836 835
735 738 743 747 751 755 758 761 764 767 770 772 775 777 779 782 784 786 789 791 794 796 799 801 804 807 809 812 817 819 819 821 824 825 827 829 831 832 833 834 835 835 832
730 734 739 744 749 753 757 760 764 767 770 773 775 778 780 782 784 787 790 793 795 798 800 803 805 807 809 812 816 818 821 823 824 826 828 829 830 831 830 830 830 832 833
727 731 736 741 746 751 756 760 764 767 770 772 775 778 780 782 785 788 790 793 795 797 799 801 804 806 810 814 816 819 820 822 824 827 828 827 827 826 825 827 830 831 832
723 727 732 738 744 749 754 759 763 766 768 771 773 776 779 780 783 786 788 791 793 796 798 801 804 807 810 813 816 817 818 821 823 825 825 825 826 827 828 829 830 830 831
720 723 728 734 741 745 751 756 761 765 767 769 771 774 777 779 782 784 788 791 793 795 797 800 803 807 810 814 816 817 818 820 822 824 825 826 825 826 826 828 830 830 829
716 720 725 731 738 743 748 753 757 760 764 766 768 771 773 776 779 783 786 790 793 795 798 801 804 807 810 812 814 814 816 818 819 821 823 823 824 825 826 827 827 829 828
712 716 722 728 734 740 744 748 752 755 758 761 764 766 768 771 774 777 781 786 790 794 797 800 803 805 807 808 810 812 814 815 819 821 823 825 828 830 830 831 830 829 828
706 711 717 723 729 735 740 744 748 751 755 757 760 762 764 766 770 774 778 783 788 792 795 797 799 801 803 804 805 809 814 817 819 821 825 828 829 831 831 831 831 829 829
700 706 713 718 724 730 735 739 742 747 750 752 755 757 759 762 765 769 774 780 785 790 792 794 795 797 798 800 803 807 811 816 820 822 825 830 831 830 829 831 833 832 831
695 700 706 712 716 722 727 733 736 739 743 746 749 754 756 758 761 765 770 776 782 786 788 791 792 794 794 796 801 806 811 816 819 825 829 834 838 835 833 833 833 833 832
687 693 699 706 711 715 721 726 730 732 736 742 746 749 753 755 759 762 766 770 775 780 783 786 788 787 789 795 800 805 809 813 819 823 824 826 828 838 836 835 833 833 832
680 686 692 699 704 708 711 715 720 724 727 732 736 741 749 755 758 762 765 769 772 775 777 781 782 785 790 796 802 807 812 819 822 830 828 832 831 830 836 834 833 832 832
672 680 687 693 696 699 702 706 710 714 718 721 726 731 734 742 748 755 759 763 767 770 773 774 779 785 792 799 804 809 814 817 823 825 831 831 830 831 833 834 832 832 831
665 671 679 684 689 694 696 700 700 704 707 712 717 722 727 732 741 746 752 758 764 767 769 771 777 786 793 800 805 809 814 818 820 825 826 828 830 829 830 830 830 830 829
662 665 670 677 682 687 690 695 698 696 698 701 706 713 722 730 734 738 745 752 756 761 767 771 777 787 795 801 806 810 814 817 822 824 827 829 828 829 828 829 829 829 829
658 661 664 669 674 680 683 685 690 689 692 696 702 707 715 727 730 730 738 746 751 759 766 772 778 786 792 797 800 804 810 816 821 823 824 826 827 827 827 827 828 828 827
656 658 659 662 666 671 676 680 684 686 688 694 701 708 714 716 722 733 737 744 752 757 765 772 780 786 791 795 802 801 808 815 818 821 823 825 826 825 825 826 827 826 825
655 656 657 658 662 668 673 677 681 686 690 696 702 708 715 721 726 732 738 744 752 758 764 773 783 789 794 798 803 808 811 814 817 819 821 822 823 824 825 826 825 824 824